Location: DARK SKY Beskydy - Park tmavé oblohy, www.darkskybeskydy.cz
(49.4926°N, 18.5016°E)
Time: 18:26:52
(UTC+02:00)

PCSat - Pass Details

Date: 13 August 2024
Orbit: 781 x 793 km, 67.1° (Epoch: 08 September)

Event Time Altitude Azimuth Distance (km) Brightness Sun altitude
Rises 22:55:55 0° 323° (NW) 3,300 14.3 -21.4°
Reaches altitude 10° 22:59:10 10° 342° (NNW) 2,369 13.1 -21.6°
Maximum altitude 23:02:48 18° 24° (NNE) 1,883 11.9 -21.9°
Drops below altitude 10° 23:06:25 10° 66° (ENE) 2,365 12.0 -22.2°
Enters shadow 23:08:21 - 80° (E) 2,891 12.3 -22.3°
